Vertical_Velocity
-1 -1 -7 -1 0 -1 -3 -3 -3 -8 -10 1 -3 -0 2 -9 3 -3 2 2 -2 0 2 -1 1 1 0 2 3 1 1 1 -1 1 2 5 2 -2 -2 0 0 2 2 1
0 2 1 -2 -4 -4 -7 -2 -9 2 -2 -5 -9 8 -4 -3 2 -2 -9 6 6 0 -2 2 -1 2 -1 1 3 3 0 0 1 3 -1 0 2 3 1 -1 -2 -0 -1 -2
4 -1 -4 1 -3 -1 -7 -2 -1 -7 3 -6 -5 15 -0 -8 0 2 1 -12 7 8 2 -3 -3 -2 -0 1 -0 -0 1 1 1 0 3 1 -0 2 2 2 1 0 1 0
-4 1 -0 2 4 -4 8 -3 -6 -3 -9 -6 6 -32 30 -8 -5 -4 0 -5 -11 9 6 6 2 4 -1 2 1 -1 -0 2 0 -1 0 0 1 -0 0 -0 1 1 2 1
-10 3 0 -1 -5 -7 -4 -1 -6 -4 -0 -7 23 -31 19 2 3 1 -2 1 -8 1 16 8 -3 0 1 1 0 2 2 3 4 1 0 1 1 3 2 1 -1 -1 0 -1
2 1 -1 3 7 3 -3 2 1 -1 -6 -7 3 4 12 4 3 -1 2 3 -6 -3 8 7 5 5 3 0 2 2 2 1 1 2 2 1 3 1 1 1 1 0 2 -1
0 3 -9 -2 6 1 -3 -7 -13 -13 -3 8 -2 -7 12 -1 5 4 1 -1 -6 -3 4 9 9 7 6 -1 2 1 -0 -0 1 1 2 1 1 2 -0 1 3 -0 -0 1
-0 11 5 4 -8 -6 6 7 -0 -15 -9 -12 1 -8 -2 9 -0 1 1 -0 0 -2 5 1 6 7 2 1 3 2 -1 1 1 2 1 2 1 0 -1 -1 -0 0 0 -1
-21 -6 8 7 8 -4 -3 3 5 -4 1 -9 -4 5 -17 9 5 -3 0 4 -9 -4 -4 11 8 6 2 -1 1 1 2 1 1 1 0 1 1 1 -0 -0 -1 -2 -0 2
-3 -19 8 0 4 -1 3 -2 -0 1 -10 -13 0 -6 -7 -3 3 6 -1 4 2 -11 1 3 5 8 2 1 1 3 2 1 2 2 1 2 1 0 1 -0 0 -0 -2 -1
-3 -5 1 5 2 -5 7 2 -2 3 4 -6 -10 2 -2 -8 -0 2 2 -4 3 3 -2 3 4 4 3 1 3 3 2 2 2 1 1 1 1 1 0 -2 -2 -3 -3 -2
5 -16 -13 1 -1 3 1 6 1 -0 5 1 -2 -4 8 1 -7 0 6 -0 -0 5 6 -0 2 3 4 2 2 2 2 2 1 1 1 1 0 -1 -2 -1 -2 -3 -4 -4
-4 -10 -11 8 -2 2 -2 -2 -4 -2 1 17 -6 4 -10 -1 -8 1 8 7 0 -3 1 7 5 2 3 3 3 1 2 2 0 2 2 0 -1 -0 -1 -1 -3 -5 -4 -3
-2 -5 0 -1 -6 -7 -2 3 5 0 -6 -4 10 4 -1 -5 -6 2 6 0 3 -2 -3 2 2 5 1 2 2 2 2 1 1 2 0 -1 -2 -1 -1 -0 -3 -4 -3 -1
-5 -9 -8 3 2 0 -13 2 -2 -11 11 -18 22 -4 6 1 -10 -6 5 5 2 -3 -0 6 2 4 3 3 2 1 1 1 1 1 -2 -2 -1 -0 -0 -2 -3 -7 -2 -1
4 -16 -2 -4 5 1 -29 15 10 11 2 -11 -4 3 -3 1 -5 -5 1 -1 -2 -0 -1 4 4 8 1 -0 2 0 1 2 0 -3 -2 -1 -1 -1 -2 -3 -6 -3 -3 -3
0 3 11 -15 5 1 -22 12 9 5 4 -4 -8 6 2 2 1 -2 -4 3 6 1 1 4 2 8 3 1 2 2 2 0 -3 0 -2 -1 -2 -2 -2 -3 -3 -5 -4 -3
-1 8 -7 -10 4 -26 6 1 5 -1 5 5 3 2 2 -2 2 -2 -0 0 -2 -2 -1 4 4 4 1 1 2 1 -0 -1 0 -2 -2 0 -1 -1 -2 -2 -4 -3 -2 -2
8 5 -2 -5 -1 -9 6 4 -6 -2 5 3 -2 0 1 1 1 1 -2 -0 -1 0 0 2 3 1 1 1 2 3 2 -1 -0 -1 1 -0 -1 -1 -1 -2 -4 -2 -3 -2
7 8 5 7 -1 -19 1 -1 2 4 -2 3 1 -4 -4 -1 0 0 -3 1 -1 2 2 3 2 2 1 2 3 3 1 -2 -1 1 0 -0 -1 -1 -3 -3 -3 -2 -3 -1
-0 4 6 6 0 -13 6 1 1 -3 1 1 2 1 -1 0 -1 1 -1 -1 2 1 -0 2 1 1 1 3 3 1 -0 -1 1 0 0 1 -1 -0 -1 -2 -1 -2 -1 0
-3 -4 5 2 2 -13 9 -4 0 -0 -0 -2 -2 0 -1 0 1 0 -0 -0 -1 -0 0 2 2 2 1 1 -0 1 1 -1 -0 1 1 -1 -0 0 -2 -1 -1 -0 -0 0
-13 -1 -1 5 3 -1 1 0 -1 -1 -1 -1 1 -2 -2 1 -1 1 1 1 1 1 0 1 1 -0 -1 0 0 1 -0 -1 1 1 -2 -0 1 -0 -1 -1 -1 -1 0 -0
3 -0 -5 2 8 0 2 1 -1 -1 -1 1 -1 0 2 1 1 -0 1 1 1 -0 -0 1 -0 0 -0 0 2 0 0 0 0 -1 -1 -2 -1 -0 -1 -1 -1 -1 0 0
6 2 7 -4 0 1 2 2 -8 -0 2 -3 -0 1 -0 1 1 2 1 0 1 1 -0 -0 0 1 -1 1 2 -0 1 2 1 0 -0 -1 -3 1 -0 -2 -1 -1 1 0
6 1 -2 -1 -0 -1 -0 0 3 -4 -3 3 3 2 -0 0 -0 0 3 0 1 1 -1 0 -0 1 -0 0 2 1 2 -1 -0 3 -2 -1 -2 -0 -0 -2 -1 0 1 0
Height
5798 5796 5792 5790 5787 5785 5781 5778 5775 5773 5768 5767 5764 5764 5761 5756 5756 5752 5749 5748 5746 5744 5743 5743 5742 5742 5742 5744 5746 5747 5748 5749 5749 5749 5750 5751 5751 5752 5753 5754 5755 5755 5755 5756
5791 5789 5785 5782 5779 5777 5774 5771 5769 5767 5763 5760 5758 5759 5755 5751 5749 5746 5743 5742 5741 5738 5737 5738 5737 5737 5737 5738 5739 5740 5742 5743 5745 5745 5745 5746 5746 5747 5748 5748 5749 5749 5749 5749
5782 5780 5776 5773 5771 5769 5766 5764 5761 5760 5756 5752 5750 5750 5748 5745 5742 5739 5737 5734 5733 5732 5731 5732 5730 5730 5731 5732 5732 5733 5734 5737 5737 5738 5740 5741 5741 5741 5742 5743 5743 5743 5743 5743
5774 5771 5768 5765 5763 5759 5758 5756 5753 5751 5748 5744 5744 5738 5744 5737 5733 5731 5729 5726 5724 5723 5724 5723 5722 5723 5724 5724 5725 5726 5727 5728 5730 5731 5732 5734 5735 5735 5736 5736 5736 5736 5736 5737
5766 5762 5759 5757 5754 5751 5750 5745 5743 5740 5737 5734 5734 5727 5729 5727 5725 5723 5720 5717 5715 5713 5713 5715 5713 5714 5716 5717 5718 5719 5720 5721 5722 5724 5724 5725 5726 5727 5728 5728 5728 5729 5729 5729
5755 5752 5750 5746 5744 5741 5738 5735 5732 5729 5726 5725 5722 5717 5719 5716 5713 5711 5709 5706 5704 5704 5703 5706 5705 5706 5709 5709 5709 5710 5711 5713 5713 5714 5715 5716 5717 5718 5719 5719 5719 5719 5719 5720
5747 5745 5743 5741 5738 5733 5729 5725 5723 5721 5718 5715 5710 5708 5708 5704 5703 5702 5699 5696 5694 5694 5695 5695 5696 5698 5699 5700 5699 5701 5702 5703 5704 5705 5706 5707 5708 5708 5709 5709 5710 5709 5709 5709
5737 5736 5733 5730 5729 5726 5722 5717 5713 5708 5706 5705 5701 5699 5698 5693 5692 5692 5688 5685 5683 5684 5684 5685 5687 5689 5689 5689 5690 5691 5692 5693 5694 5695 5696 5697 5698 5698 5698 5698 5699 5698 5698 5697
5726 5727 5724 5720 5716 5714 5710 5709 5704 5698 5697 5694 5692 5690 5688 5687 5683 5680 5678 5675 5672 5674 5674 5675 5677 5678 5679 5678 5679 5680 5681 5683 5684 5685 5686 5687 5687 5687 5687 5687 5687 5687 5686 5686
5714 5714 5713 5711 5708 5703 5701 5699 5695 5689 5686 5684 5682 5679 5678 5678 5674 5670 5669 5666 5664 5663 5663 5662 5664 5666 5667 5668 5669 5669 5670 5672 5673 5674 5675 5675 5676 5676 5675 5675 5675 5674 5673 5673
5701 5701 5704 5701 5698 5696 5692 5688 5685 5681 5679 5674 5673 5673 5669 5667 5664 5660 5656 5655 5655 5654 5653 5653 5652 5653 5655 5656 5658 5659 5660 5661 5662 5663 5664 5664 5664 5664 5663 5662 5661 5661 5659 5658
5691 5690 5691 5690 5687 5685 5682 5680 5675 5671 5671 5665 5662 5664 5660 5656 5654 5651 5647 5645 5644 5644 5644 5642 5641 5642 5644 5646 5647 5648 5649 5650 5651 5652 5653 5654 5653 5652 5650 5649 5649 5648 5646 5645
5680 5678 5678 5678 5677 5674 5672 5668 5664 5659 5659 5660 5652 5652 5645 5643 5640 5639 5637 5636 5634 5633 5633 5633 5632 5631 5633 5636 5637 5638 5639 5640 5641 5642 5643 5642 5641 5640 5639 5638 5637 5636 5634 5631
5665 5666 5666 5666 5662 5662 5661 5658 5653 5649 5645 5646 5644 5640 5634 5631 5628 5627 5624 5623 5622 5622 5621 5620 5621 5623 5622 5625 5627 5628 5630 5631 5632 5633 5632 5632 5631 5630 5629 5628 5627 5625 5622 5619
5654 5653 5652 5654 5651 5647 5648 5644 5640 5638 5637 5631 5634 5627 5624 5619 5615 5613 5613 5612 5611 5610 5611 5612 5611 5613 5615 5616 5618 5619 5621 5623 5624 5623 5622 5622 5622 5621 5621 5619 5618 5615 5611 5607
5643 5641 5638 5640 5636 5632 5633 5632 5629 5627 5624 5620 5618 5616 5612 5608 5604 5603 5602 5600 5598 5598 5600 5601 5602 5605 5605 5607 5609 5611 5614 5615 5614 5614 5614 5614 5613 5612 5611 5610 5607 5604 5600 5596
5628 5626 5625 5623 5621 5618 5617 5620 5615 5614 5610 5606 5604 5604 5600 5597 5594 5592 5591 5590 5590 5589 5588 5591 5592 5596 5596 5597 5600 5602 5605 5605 5606 5606 5606 5605 5603 5603 5601 5599 5597 5593 5590 5586
5613 5611 5607 5607 5604 5601 5605 5602 5600 5598 5597 5594 5593 5590 5588 5585 5583 5581 5580 5579 5578 5578 5578 5580 5583 5585 5585 5588 5591 5593 5595 5596 5597 5597 5597 5596 5595 5594 5592 5589 5587 5584 5580 5577
5602 5598 5593 5591 5589 5589 5590 5589 5586 5584 5585 5582 5579 5578 5576 5575 5573 5571 5570 5569 5569 5569 5569 5571 5573 5574 5577 5580 5583 5585 5586 5587 5587 5588 5588 5587 5586 5584 5582 5580 5578 5575 5571 5568
5591 5587 5582 5579 5575 5572 5575 5575 5573 5572 5572 5572 5569 5566 5564 5563 5562 5562 5560 5560 5560 5561 5562 5563 5565 5567 5569 5572 5574 5576 5577 5578 5579 5579 5579 5578 5577 5576 5574 5572 5570 5566 5563 5560
5573 5571 5569 5566 5561 5560 5562 5562 5561 5560 5563 5558 5557 5555 5554 5554 5553 5552 5552 5552 5553 5553 5554 5556 5558 5560 5562 5564 5565 5567 5568 5569 5570 5571 5570 5570 5568 5568 5566 5564 5562 5559 5556 5554
5559 5556 5556 5553 5548 5546 5550 5548 5549 5548 5547 5546 5545 5543 5543 5543 5543 5543 5543 5544 5544 5545 5546 5548 5550 5552 5554 5555 5557 5559 5560 5561 5562 5562 5562 5562 5561 5560 5559 5557 5555 5552 5549 5548
5544 5544 5542 5541 5537 5535 5535 5534 5534 5534 5535 5533 5532 5532 5531 5532 5532 5533 5534 5535 5535 5536 5538 5540 5542 5544 5545 5547 5548 5549 5551 5552 5553 5553 5554 5554 5554 5553 5551 5550 5548 5546 5544 5544
5529 5527 5526 5524 5525 5523 5521 5521 5521 5520 5521 5521 5520 5519 5519 5520 5521 5522 5523 5525 5525 5527 5528 5530 5533 5535 5537 5538 5540 5541 5542 5543 5544 5545 5545 5546 5546 5546 5545 5543 5542 5540 5539 5539
5516 5514 5513 5509 5509 5508 5509 5508 5507 5508 5508 5507 5507 5507 5507 5509 5510 5511 5513 5513 5515 5516 5518 5520 5522 5525 5526 5528 5530 5531 5531 5533 5534 5535 5537 5538 5538 5539 5538 5537 5536 5534 5534 5534
5503 5501 5498 5497 5496 5495 5496 5495 5495 5494 5494 5495 5495 5494 5495 5496 5497 5499 5501 5502 5504 5506 5507 5509 5511 5513 5515 5516 5518 5518 5519 5521 5523 5525 5527 5529 5530 5531 5531 5531 5530 5529 5530 5529